This is the latest recevied weather packets stored in our database for station/object KE5JQA-1. If no packets are shown the sender has not sent any weather packets the latest 10 day(s).
| Time | Temp. | Humidity | Pressure | Rain* | Wind** | Luminosity | Snow |
|---|---|---|---|---|---|---|---|
| 1777075517 | 29.44° C | 50% | 1005.7 hPa | 0 mm | - | - | - |
| 1777073716 | 30.56° C | 49% | 1005.8 hPa | 0 mm | - | - | - |
| 1777073416 | 30.56° C | 48% | 1005.8 hPa | 0 mm | - | - | - |
| 1777073121 | 30.56° C | 48% | 1005.8 hPa | 0 mm | - | - | - |
| 1777071019 | 31.11° C | 46% | 1005.8 hPa | 0 mm | - | - | - |
| 1777069819 | 31.67° C | 44% | 1005.9 hPa | 0 mm | - | - | - |
| 1777069244 | 31.67° C | 43% | 1005.9 hPa | 0 mm | - | - | - |
| 1777066823 | 31.67° C | 44% | 1006.3 hPa | 0 mm | - | - | - |
| 1777065320 | 31.11° C | 45% | 1006.5 hPa | 0 mm | - | - | - |
| 1777062918 | 31.67° C | 36% | 1006.9 hPa | 0 mm | - | - | - |
| 1777062619 | 31.67° C | 36% | 1007.1 hPa | 0 mm | - | - | - |
| 1777061720 | 31.67° C | 19% | 1007.2 hPa | 0 mm | - | - | - |
| 1777061419 | 31.11° C | 18% | 1007.2 hPa | 0 mm | - | - | - |
| 1777060861 | 31.11° C | 19% | 1007.4 hPa | 0 mm | - | - | - |
| 1777059940 | 31.11° C | 16% | 1007.5 hPa | 0 mm | - | - | - |
| 1777057823 | 30° C | 19% | 1008 hPa | 0 mm | - | - | - |
| 1777057539 | 30.56° C | 19% | 1008 hPa | 0 mm | - | - | - |
| 1777056318 | 30.56° C | 19% | 1008.3 hPa | 0 mm | - | - | - |
| 1777055718 | 30.56° C | 15% | 1008.3 hPa | 0 mm | - | - | - |
| 1777053618 | 29.44° C | 20% | 1008.8 hPa | 0 mm | - | - | - |
| 1777051218 | 27.78° C | 24% | 1009.1 hPa | 0 mm | - | - | - |
* Rain latest hour (hover to see other rain measurements)
** Current wind speed in m/s (hover to see current wind gust speed)